Tracking 18851 objects as of 25-Nov-2017
HD Live streaming from Space Station
objects crossing your sky now

FENGYUN 1C DEB

Track FENGYUN 1C DEB now!
10-day predictions


NORAD ID: 31487
Int'l Code: 1999-025BWB
Perigee: 846.3 km
Apogee: 1,036.0 km
Inclination: 102.4 °
Period: 103.7 minutes
Semi major axis: 7312 km
RCS: 0.0135 m2 (small)
Launch date: May 10, 1999
Source: People's Republic of China (PRC)
Launch site: Taiyaun Space Center, China (TSC)

Note: This is SATELLITE DEBRIS
aabbcc
Your satellite tracking list
Your tracking list is empty




NASA's NSSDC Master Catalog

Two Line Element Set (TLE):
1 31487U 99025BWB 17328.86157705 +.00000688 +00000-0 +59018-3 0  9996
2 31487 102.4249 194.6977 0129740 120.1526 307.4479 13.88471582535352
Source of the keplerian elements: AFSPC